DW8032 Weather Reports


time (UTC)temp
C
wind
direction
speed
KPH
gust
KPH
rain 1hr
cm
rain 24hr
cm
rain mn
cm
humidity
%
barometer
mb
20260503184959 15 280 3.2 9.7 0.00 0.00 0.00 21 1019.7
20260503184000 15 246 1.6 4.8 0.00 0.00 0.00 26 1019.9
20260503183000 14 248 3.2 6.4 0.00 0.00 0.00 30 1019.9
20260503182000 14 240 1.6 6.4 0.00 0.00 0.00 26 1020.0
20260503180959 13 255 1.6 4.8 0.00 0.00 0.00 28 1020.1
20260503174958 13 260 1.6 6.4 0.00 0.00 0.00 34 1020.1
20260503173959 13 278 1.6 4.8 0.00 0.00 0.00 30 1020.2
20260503172959 14 90 1.6 4.8 0.00 0.00 0.00 32 1020.4
20260503171959 13 271 3.2 6.4 0.00 0.00 0.00 32 1020.4
20260503170959 14 253 1.6 6.4 0.00 0.00 0.00 31 1020.5
20260503131000 8 255 1.6 8.0 0.00 0.00 0.00 55 1020.6
20260503071958 3 280 1.6 4.8 0.00 0.00 0.00 70 1017.6
20260503070958 3 263 1.6 6.4 0.00 0.00 0.00 70 1017.5
20260503054000 4 249 1.6 4.8 0.00 0.00 0.00 66 1017.3
20260503053000 4 245 1.6 4.8 0.00 0.00 0.00 65 1017.4
20260503052000 4 264 1.6 4.8 0.00 0.00 0.00 64 1017.4
20260503050001 5 259 1.6 4.8 0.00 0.00 0.00 63 1017.3
20260503043959 5 245 1.6 3.2 0.00 0.00 0.00 62 1017.2
20260503041959 5 281 1.6 3.2 0.00 0.00 0.00 61 1017.0
20260503040005 5 29 1.6 4.8 0.00 0.00 0.00 61 1016.8
20260503035000 5 298 1.6 3.2 0.00 0.00 0.00 61 1016.7
20260503032000 5 225 0.0 4.8 0.00 0.00 0.00 59 1016.6
20260503031001 5 248 0.0 3.2 0.00 0.00 0.00 59 1016.7
20260503025000 6 207 1.6 4.8 0.00 0.00 0.00 58 1016.5
20260503024001 6 243 1.6 6.4 0.00 0.00 0.00 57 1016.5
20260503023000 6 271 1.6 4.8 0.00 0.00 0.00 56 1016.4
20260503022000 6 221 1.6 4.8 0.00 0.00 0.00 56 1016.2
20260503021000 6 242 0.0 3.2 0.00 0.00 0.00 56 1016.3
20260503020002 6 290 0.0 1.6 0.00 0.00 0.00 55 1016.2
20260503015000 6 269 1.6 6.4 0.00 0.00 0.00 54 1016.1
20260503013001 6 255 1.6 11.3 0.00 0.00 0.00 53 1015.9
20260503012001 7 273 1.6 3.2 0.00 0.00 0.00 52 1015.8
20260503011001 7 287 1.6 3.2 0.00 0.00 0.00 51 1015.6
20260503010002 7 270 1.6 6.4 0.00 0.00 0.00 51 1015.4
20260503005001 7 304 1.6 3.2 0.00 0.00 0.00 51 1015.3
20260503004000 7 307 1.6 6.4 0.00 0.00 0.00 51 1015.3
20260503003000 7 333 3.2 11.3 0.00 0.00 0.00 50 1015.0
20260503002001 7 221 3.2 8.0 0.00 0.00 0.00 48 1014.9
20260503000959 7 332 1.6 4.8 0.00 0.00 0.00 48 1014.7
20260503000002 8 317 1.6 9.7 0.00 0.00 0.00 47 1014.6
20260502235000 8 343 3.2 6.4 0.00 0.00 0.00 46 1014.6
20260502234000 8 293 3.2 8.0 0.00 0.00 0.00 44 1014.5
20260502233001 8 359 3.2 6.4 0.00 0.00 0.00 45 1014.3
20260502231959 8 346 1.6 4.8 0.00 0.00 0.00 44 1014.2
20260502230002 9 273 1.6 4.8 0.00 0.00 0.00 45 1014.2
20260502225001 9 292 1.6 6.4 0.00 0.00 0.00 44 1014.2
20260502224001 9 329 1.6 8.0 0.00 0.00 0.00 42 1014.1
20260502223000 10 343 1.6 6.4 0.00 0.00 0.00 43 1014.2
20260502222000 10 344 3.2 8.0 0.00 0.00 0.00 44 1014.1
20260502221000 10 315 3.2 6.4 0.00 0.00 0.00 42 1014.0
20260502214000 11 330 1.6 6.4 0.00 0.00 0.00 40 1013.5
20260502213002 11 18 3.2 6.4 0.00 0.00 0.00 38 1013.4
20260502211000 12 354 1.6 6.4 0.00 0.00 0.00 37 1013.2
20260502210002 12 295 3.2 8.0 0.00 0.00 0.00 37 1013.2
20260502204959 12 338 3.2 6.4 0.00 0.00 0.00 37 1013.3
20260502204000 12 6 1.6 4.8 0.00 0.00 0.00 37 1013.2
20260502203000 12 139 1.6 6.4 0.00 0.00 0.00 36 1013.3
20260502201959 13 312 3.2 6.4 0.00 0.00 0.00 36 1013.3
20260502201000 13 75 1.6 9.7 0.00 0.00 0.00 35 1013.4
20260502195001 13 323 1.6 6.4 0.00 0.00 0.00 38 1013.4
20260502194000 12 6 1.6 4.8 0.00 0.00 0.00 41 1013.5
20260502193001 12 344 1.6 11.3 0.00 0.00 0.00 43 1013.6
20260502192000 12 276 1.6 3.2 0.00 0.00 0.00 47 1013.7
20260502190959 12 281 1.6 4.8 0.00 0.00 0.00 42 1013.8
20260502190000 12 47 1.6 3.2 0.00 0.00 0.00 49 1013.9